Weather History for Bay City, TX

Change the Weather History Date:

Monday, December 10, 2012

  Actual Average (KLBX) Record (KLBX)
Temperature  
Mean Temperature 56 °F -  
Max Temperature 74 °F 62 °F 79 °F (2007)
Min Temperature 39 °F 45 °F 33 °F (2008)
Degree Days  
Heating Degree Days 8    
Growing Degree Days 6 (Base 50)    
Moisture  
Dew Point 37 °F    
Average Humidity 62    
Maximum Humidity 100    
Minimum Humidity 37    
Precipitation  
Precipitation 0.05 in - - ()
Sea Level Pressure  
Sea Level Pressure 30.00 in    
Wind  
Wind Speed 14 mph (NNW)    
Max Wind Speed 26 mph    
Max Gust Speed 34 mph    
Visibility 9 miles    
Events Rain    
Averages and records for this station are not official NWS values.
T = Trace of Precipitation, MM = Missing Value Source: NWS Daily Summary

Daily Weather History Graph

Daily Weather History Graph

Search for Another Location

Airport:

Trip Planner

Search our weather history database for the weather conditions in past years. The results will help you decide how hot, cold, wet, or windy it might be!

Date:

Astronomy

Dec. 10, 2012 Rise Set
Actual Time 7:06 AM CST 5:26 PM CST
Civil Twilight 6:40 AM CST 5:52 PM CST
Nautical Twilight 6:11 AM CST 6:21 PM CST
Astronomical Twilight 5:42 AM CST 6:50 PM CST
Moon 3:59 AM CST (12/10) 3:09 PM CST (12/10)
Length of Visible Light 11h 11m
Length of Day
10h 20m
Waning Crescent, 10% of the Moon is Illuminated
Dec 10
Waning Crescent
Dec 13
New
Dec 19
First Quarter
Dec 28
Full
Jan 4
Last Quarter

Hourly Weather History & Observations

Time (CST) Temp. Windchill Dew Point Humidity Pressure Visibility Wind Dir Wind Speed Gust Speed Precip Events Conditions
12:15 AM 74.5 °F - 74.5 °F 100% 29.82 in 7.0 mi South 8.1 mph - N/A   Overcast
12:35 AM 73.4 °F - 73.4 °F 100% 29.81 in 7.0 mi South 6.9 mph - N/A Rain Light Rain
12:55 AM 74.3 °F - 74.3 °F 100% 29.81 in 7.0 mi SSW 13.8 mph - N/A Rain Rain
1:15 AM 74.1 °F - 74.1 °F 100% 29.81 in 7.0 mi SW 8.1 mph - N/A   Overcast
1:35 AM 60.8 °F - 65.7 °F 100% 29.83 in 7.0 mi NNW 11.5 mph 20.7 mph N/A   Overcast
1:55 AM 61.0 °F - 61.0 °F 100% 29.84 in 5.0 mi NNW 11.5 mph - 0.01 in Rain Light Rain
2:15 AM 59.2 °F - 59.2 °F 100% 29.85 in 4.0 mi NNW 13.8 mph 18.4 mph 0.02 in Rain Rain
2:55 AM 57.4 °F - 57.4 °F 100% 29.85 in 5.0 mi NNW 10.4 mph 16.1 mph 0.04 in Rain Light Rain
3:15 AM 57.2 °F - 57.2 °F 100% 29.86 in 5.0 mi NNW 10.4 mph - N/A   Overcast
3:35 AM 57.2 °F - 57.2 °F 100% 29.86 in 7.0 mi NNW 11.5 mph 19.6 mph N/A   Overcast
3:55 AM 57.2 °F - 57.2 °F 100% 29.87 in 7.0 mi North 13.8 mph - N/A Rain Light Rain
4:15 AM 56.8 °F - 56.8 °F 100% 29.85 in 7.0 mi North 19.6 mph 25.3 mph N/A   Overcast
4:35 AM 56.3 °F - 56.3 °F 100% 29.87 in 10.0 mi North 16.1 mph 25.3 mph N/A   Overcast
4:55 AM 56.1 °F - 55.8 °F 99% 29.88 in 10.0 mi North 18.4 mph 23.0 mph N/A   Overcast
5:15 AM 55.9 °F - 55.6 °F 99% 29.89 in 10.0 mi NNW 19.6 mph 24.2 mph N/A   Overcast
5:35 AM 55.8 °F - 55.0 °F 97% 29.91 in 10.0 mi NNW 19.6 mph 28.8 mph N/A   Overcast
5:55 AM 55.2 °F - 53.1 °F 92% 29.95 in 10.0 mi NNW 19.6 mph 34.5 mph N/A   Overcast
6:15 AM 52.3 °F - 39.2 °F 61% 29.97 in 10.0 mi NNW 18.4 mph 33.4 mph N/A   Overcast
6:35 AM 49.1 °F - 37.8 °F 65% 29.98 in 10.0 mi NNW 21.9 mph 33.4 mph N/A   Overcast
6:55 AM 47.7 °F - 34.3 °F 60% 30.00 in 10.0 mi NNW 25.3 mph 34.5 mph N/A   Overcast
7:15 AM 46.9 °F - 32.2 °F 57% 30.01 in 10.0 mi NNW 23.0 mph 32.2 mph N/A   Overcast
7:35 AM 46.4 °F 37.7 °F 31.8 °F 57% 30.01 in 10.0 mi North 26.5 mph 33.4 mph N/A   Overcast
7:55 AM 44.6 °F 36.6 °F 32.0 °F 61% 30.01 in 10.0 mi NNW 19.6 mph 28.8 mph N/A   Overcast
8:15 AM 46.4 °F 39.0 °F 31.5 °F 56% 30.02 in 10.0 mi North 19.6 mph 26.5 mph N/A   Overcast
8:35 AM 46.6 °F - 31.3 °F 55% 30.02 in 10.0 mi NNW 20.7 mph 26.5 mph N/A   Overcast
8:55 AM 46.8 °F - 30.9 °F 54% 30.02 in 10.0 mi NNW 17.3 mph 25.3 mph N/A   Overcast
9:15 AM 47.3 °F - 31.3 °F 54% 30.01 in 10.0 mi North 18.4 mph 27.6 mph N/A   Overcast
9:35 AM 48.2 °F - 31.5 °F 52% 30.02 in 10.0 mi NNW 19.6 mph 26.5 mph N/A   Overcast
9:55 AM 49.3 °F - 31.5 °F 50% 30.03 in 10.0 mi NNW 20.7 mph 31.1 mph N/A   Overcast
10:15 AM 49.3 °F - 30.0 °F 48% 30.03 in 10.0 mi North 20.7 mph 32.2 mph N/A   Overcast
10:35 AM 49.6 °F - 28.2 °F 44% 30.05 in 10.0 mi NNW 20.7 mph 28.8 mph N/A   Overcast
10:55 AM 49.3 °F - 27.3 °F 43% 30.05 in 10.0 mi North 21.9 mph 28.8 mph N/A   Overcast
11:15 AM 49.5 °F - 26.4 °F 41% 30.07 in 10.0 mi North 19.6 mph 29.9 mph N/A   Overcast
11:35 AM 48.2 °F - 28.4 °F 46% 30.06 in 10.0 mi NNW 15.0 mph 25.3 mph N/A   Overcast
11:55 AM 49.1 °F - 27.1 °F 43% 30.06 in 10.0 mi NNW 15.0 mph 23.0 mph N/A   Overcast
12:15 PM 49.1 °F - 27.0 °F 42% 30.06 in 10.0 mi NNW 16.1 mph 23.0 mph N/A   Overcast
12:35 PM 49.1 °F - 26.6 °F 42% 30.05 in 10.0 mi NNW 12.7 mph 21.9 mph N/A   Overcast
12:55 PM 49.8 °F - 26.8 °F 41% 30.05 in 10.0 mi NNW 17.3 mph 20.7 mph N/A   Overcast
1:15 PM 50.7 °F - 27.3 °F 40% 30.03 in 10.0 mi NNW 15.0 mph 21.9 mph N/A   Overcast
1:35 PM 52.5 °F - 28.2 °F 39% 30.03 in 10.0 mi North 13.8 mph 23.0 mph N/A   Overcast
1:55 PM 54.1 °F - 29.5 °F 39% 30.03 in 10.0 mi North 15.0 mph 25.3 mph N/A   Mostly Cloudy
2:15 PM 54.0 °F - 28.8 °F 38% 30.02 in 10.0 mi North 17.3 mph 27.6 mph N/A   Mostly Cloudy
2:35 PM 53.4 °F - 28.9 °F 39% 30.02 in 10.0 mi North 13.8 mph - N/A   Scattered Clouds
2:55 PM 55.4 °F - 30.2 °F 38% 30.01 in 10.0 mi NNW 15.0 mph 21.9 mph N/A   Scattered Clouds
3:15 PM 55.8 °F - 30.0 °F 37% 30.02 in 10.0 mi NNW 21.9 mph 26.5 mph N/A   Clear
3:35 PM 55.4 °F - 32.0 °F 41% 30.01 in 10.0 mi NNW 13.8 mph 19.6 mph N/A   Clear
3:55 PM 55.6 °F - 31.3 °F 40% 30.01 in 10.0 mi North 17.3 mph 24.2 mph N/A   Clear
4:15 PM 54.5 °F - 30.7 °F 40% 30.02 in 10.0 mi NNW 15.0 mph 24.2 mph N/A   Clear
4:35 PM 53.6 °F - 30.9 °F 42% 30.02 in 10.0 mi NNW 16.1 mph 21.9 mph N/A   Clear
4:55 PM 52.3 °F - 30.7 °F 44% 30.03 in 10.0 mi NNW 13.8 mph 19.6 mph N/A   Clear
5:15 PM 51.6 °F - 31.5 °F 46% 30.03 in 10.0 mi NNW 6.9 mph - N/A   Clear
5:35 PM 50.2 °F - 31.8 °F 49% 30.03 in 10.0 mi NNW 9.2 mph 16.1 mph N/A   Clear
5:55 PM 49.1 °F - 31.6 °F 51% 30.03 in 10.0 mi NNW 9.2 mph - N/A   Clear
6:15 PM 48.6 °F - 31.5 °F 52% 30.05 in 10.0 mi NNW 8.1 mph - N/A   Clear
6:35 PM 47.5 °F - 31.5 °F 54% 30.06 in 10.0 mi NW 9.2 mph - N/A   Clear
6:55 PM 46.8 °F - 31.3 °F 55% 30.07 in 10.0 mi NNW 6.9 mph - N/A   Clear
7:15 PM 46.4 °F 41.5 °F 30.2 °F 53% 30.07 in 10.0 mi NNW 10.4 mph - N/A   Clear
7:35 PM 46.4 °F 40.7 °F 28.4 °F 50% 30.08 in 10.0 mi NNW 12.7 mph - N/A   Clear
7:55 PM 45.9 °F 41.2 °F 27.5 °F 49% 30.09 in 10.0 mi NNW 9.2 mph 16.1 mph N/A   Clear
8:15 PM 45.3 °F 40.1 °F 27.1 °F 49% 30.09 in 10.0 mi NNW 10.4 mph - N/A   Clear
8:35 PM 44.8 °F 39.4 °F 26.8 °F 49% 30.10 in 10.0 mi NNW 10.4 mph - N/A   Clear
8:55 PM 44.2 °F 39.2 °F 26.6 °F 50% 30.10 in 10.0 mi NNW 9.2 mph - N/A   Clear
9:15 PM 43.7 °F 39.1 °F 26.6 °F 51% 30.10 in 10.0 mi NNW 8.1 mph - N/A   Clear
9:35 PM 42.8 °F 39.3 °F 27.1 °F 54% 30.10 in 10.0 mi North 5.8 mph - N/A   Clear
9:55 PM 41.4 °F 36.8 °F 27.9 °F 59% 30.10 in 10.0 mi North 6.9 mph - N/A   Clear
10:15 PM 41.2 °F 36.6 °F 27.9 °F 59% 30.11 in 10.0 mi North 6.9 mph - N/A   Clear
10:35 PM 41.2 °F 36.0 °F 27.9 °F 59% 30.11 in 10.0 mi NNW 8.1 mph - N/A   Clear
10:55 PM 41.0 °F 36.4 °F 28.0 °F 60% 30.11 in 10.0 mi North 6.9 mph - N/A   Clear
11:15 PM 40.1 °F 35.3 °F 28.4 °F 63% 30.11 in 10.0 mi North 6.9 mph - N/A   Clear
11:35 PM 39.6 °F 35.4 °F 28.4 °F 64% 30.12 in 10.0 mi NNW 5.8 mph - N/A   Clear
11:55 PM 39.6 °F 34.7 °F 28.4 °F 64% 30.11 in 10.0 mi NNW 6.9 mph - N/A   Clear